Pine Ridge, SD

1:00 AM MDT on October 18, 2017 (GMT -0600)
Pine Ridge

Weather History for KIEN - January, 2014

Change the Weather History Date:

Thursday, January 30, 2014

  Actual Average Record
Temperature  
Mean Temperature 27 °F 24 °F  
Max Temperature 39 °F 38 °F 54 °F (1998)
Min Temperature 14 °F 11 °F -6 °F (2007)
Degree Days  
Heating Degree Days 38 41  
Month to date heating degree days 1150 1245  
Since 1 July heating degree days 4141 4235  
Cooling Degree Days 0 0  
Month to date cooling degree days 0 0  
Year to date cooling degree days 0 0  
Moisture  
Dew Point 15 °F    
Average Humidity 78    
Maximum Humidity 89    
Minimum Humidity 67    
Precipitation  
Precipitation 0.01 in 0.02 in 0.11 in (2003)
Month to date precipitation 0.09 0.31  
Year to date precipitation 0.09 0.31  
Sea Level Pressure  
Sea Level Pressure 29.82 in    
Wind  
Wind Speed 7 mph (North)    
Max Wind Speed 21 mph    
Max Gust Speed 26 mph    
Visibility 10 miles    
Events Snow    
T = Trace of Precipitation, MM = Missing Value Source: NWS Daily Summary

Daily Weather History Graph

Daily Weather History Graph

Search for Another Location

Airport or City:

Trip Planner

Search our weather history database for the weather conditions in past years. The results will help you decide how hot, cold, wet, or windy it might be!

Date:

Astronomy

Jan. 30, 2014 Rise Set
Actual Time 7:07 AM MST 5:00 PM MST
Civil Twilight 6:36 AM MST 5:30 PM MST
Nautical Twilight 6:02 AM MST 6:04 PM MST
Astronomical Twilight 5:29 AM MST 6:37 PM MST
Moon 6:33 AM MST (1/30) 5:16 PM MST (1/30)
Length of Visible Light 10h 53m
Length of Day
9h 53m
Waning Crescent, 0% of the Moon is Illuminated
Jan 30
Waning Crescent
Jan 30
New
Feb 6
First Quarter
Feb 14
Full
Feb 22
Last Quarter

Hourly Weather History & Observations

Time (MST) Temp. Windchill Dew Point Humidity Pressure Visibility Wind Dir Wind Speed Gust Speed Precip Events Conditions
12:52 AM 37.0 °F 33.3 °F 33.1 °F 86% 29.40 in 10.0 mi NW 4.6 mph - 0.01 in   Overcast
1:52 AM 34.0 °F 31.0 °F 30.0 °F 85% 29.43 in 10.0 mi WSW 3.5 mph - N/A   Overcast
2:49 AM 35.6 °F 27.5 °F 28.4 °F 75% 29.49 in 10.0 mi NNW 11.5 mph 20.7 mph N/A   Overcast
2:52 AM 36.0 °F 27.5 °F 28.9 °F 76% 29.50 in 10.0 mi NNW 12.7 mph 20.7 mph N/A   Overcast
3:34 AM 28.4 °F 18.5 °F 24.8 °F 86% 29.54 in 10.0 mi North 11.5 mph 19.6 mph N/A   Overcast
3:52 AM 27.0 °F 15.6 °F 23.0 °F 85% 29.61 in 10.0 mi North 13.8 mph 20.7 mph N/A   Overcast
4:38 AM 21.2 °F 12.6 °F 17.6 °F 86% 29.61 in 10.0 mi North 6.9 mph 16.1 mph N/A   Overcast
4:52 AM 21.0 °F 9.9 °F 17.1 °F 85% 29.69 in 10.0 mi North 10.4 mph - N/A   Overcast
5:28 AM 19.4 °F 10.4 °F 15.8 °F 86% 29.64 in 10.0 mi North 6.9 mph - N/A   Overcast
5:52 AM 19.0 °F 8.2 °F 15.1 °F 85% 29.75 in 10.0 mi North 9.2 mph - N/A   Overcast
6:05 AM 19.4 °F 8.6 °F 15.8 °F 86% 29.68 in 10.0 mi North 9.2 mph - N/A   Overcast
6:52 AM 18.0 °F 6.9 °F 14.0 °F 84% 29.79 in 10.0 mi North 9.2 mph - N/A   Overcast
7:52 AM 19.0 °F 8.2 °F 14.0 °F 81% 29.82 in 10.0 mi North 9.2 mph - N/A   Overcast
8:52 AM 19.0 °F 12.3 °F 14.0 °F 81% 29.86 in 10.0 mi North 4.6 mph - N/A   Overcast
9:52 AM 19.0 °F 9.0 °F 14.0 °F 81% 29.87 in 10.0 mi North 8.1 mph - N/A   Overcast
10:52 AM 19.0 °F 7.5 °F 12.9 °F 77% 29.89 in 10.0 mi North 10.4 mph - N/A   Overcast
11:12 AM 17.6 °F 3.7 °F 12.2 °F 79% 29.81 in 10.0 mi North 13.8 mph - N/A   Overcast
11:52 AM 19.0 °F 9.0 °F 12.0 °F 74% 29.91 in 10.0 mi NNE 8.1 mph - N/A   Overcast
12:52 PM 19.0 °F 10.0 °F 12.0 °F 74% 29.91 in 3.0 mi North 6.9 mph - 0.00 in Snow Light Snow
1:52 PM 19.0 °F 7.5 °F 10.9 °F 71% 29.91 in 5.0 mi North 10.4 mph - 0.00 in Snow Light Snow
2:52 PM 19.0 °F 8.2 °F 12.0 °F 74% 29.93 in 10.0 mi North 9.2 mph - 0.00 in   Overcast
3:05 PM 19.4 °F 8.6 °F 12.2 °F 74% 29.84 in 8.0 mi North 9.2 mph - N/A   Overcast
3:52 PM 18.0 °F 4.8 °F 10.9 °F 74% 29.97 in 10.0 mi NNE 12.7 mph - 0.00 in   Overcast
4:52 PM 17.1 °F 7.6 °F 10.9 °F 77% 30.03 in 10.0 mi NE 6.9 mph - N/A   Overcast
5:52 PM 16.0 °F - 10.0 °F 77% 30.05 in 10.0 mi Calm Calm - N/A   Overcast
6:52 PM 16.0 °F 10.4 °F 9.0 °F 74% 30.09 in 8.0 mi NE 3.5 mph - N/A   Overcast
7:52 PM 16.0 °F - 8.1 °F 71% 30.09 in 10.0 mi Calm Calm - N/A   Overcast
8:52 PM 15.1 °F 6.4 °F 8.1 °F 74% 30.08 in 10.0 mi North 5.8 mph - N/A   Overcast
9:52 PM 15.1 °F 9.4 °F 8.1 °F 74% 30.09 in 10.0 mi NE 3.5 mph - N/A   Overcast
10:52 PM 15.1 °F 6.4 °F 7.0 °F 70% 30.08 in 10.0 mi ENE 5.8 mph - N/A   Overcast
11:52 PM 14.0 °F 5.1 °F 8.1 °F 77% 30.07 in 10.0 mi East 5.8 mph - N/A   Mostly Cloudy